Location: *
(53.9002°N, 27.5624°E)
Time: 05:20:14
(UTC+00:00)

H-2A R/B - Pass Details

Date: 12 November 2019
Orbit: 733 x 838 km, 98.3° (Epoch: 13 December)

Event Time Altitude Azimuth Distance (km) Brightness Sun altitude
Exits shadow 17:21:43 38° 12° (NNE) 1,241 2.9 -27.1°
Drops below altitude 10° 17:25:12 10° 351° (N) 2,429 4.7 -27.6°
Sets 17:27:34 0° 348° (NNW) 3,352 5.6 -28.0°
